This is the latest recevied weather packets stored in our database for station/object DM4XI-13. If no packets are shown the sender has not sent any weather packets the latest 10 day(s).
| Time | Temp. | Humidity | Pressure | Rain* | Wind** | Luminosity | Snow |
|---|---|---|---|---|---|---|---|
| 1777715439 | 22.22° C | 35% | 1020.6 hPa | 0 mm | 1.79 m/s, 146° | 592 W/m² | - |
| 1777715378 | 22.22° C | 35% | 1020.7 hPa | 0 mm | 2.24 m/s, 121° | 590 W/m² | - |
| 1777715317 | 22.22° C | 35% | 1020.6 hPa | 0 mm | 0 m/s | 588 W/m² | - |
| 1777715256 | 22.22° C | 38% | 1020.7 hPa | 0 mm | 1.34 m/s, 171° | 586 W/m² | - |
| 1777715195 | 22.22° C | 36% | 1020.7 hPa | 0 mm | 0.89 m/s, 257° | 586 W/m² | - |
| 1777715134 | 21.67° C | 35% | 1020.6 hPa | 0 mm | 0.89 m/s, 211° | 583 W/m² | - |
| 1777715073 | 21.67° C | 37% | 1020.6 hPa | 0 mm | 0.45 m/s, 215° | 584 W/m² | - |
| 1777715012 | 21.67° C | 37% | 1020.7 hPa | 0 mm | 0.45 m/s, 191° | 583 W/m² | - |
| 1777714951 | 21.67° C | 35% | 1020.7 hPa | 0 mm | 0.45 m/s, 200° | 582 W/m² | - |
| 1777714890 | 21.11° C | 35% | 1020.7 hPa | 0 mm | 0 m/s | 580 W/m² | - |
| 1777714829 | 21.11° C | 37% | 1020.7 hPa | 0 mm | 0 m/s | 580 W/m² | - |
| 1777714768 | 21.11° C | 36% | 1020.7 hPa | 0 mm | 0.45 m/s, 146° | 577 W/m² | - |
| 1777714707 | 21.11° C | 37% | 1020.8 hPa | 0 mm | 0.89 m/s, 145° | 576 W/m² | - |
| 1777714646 | 21.11° C | 36% | 1020.8 hPa | 0 mm | 0.89 m/s, 175° | 574 W/m² | - |
| 1777714585 | 21.11° C | 38% | 1020.8 hPa | 0 mm | 0.45 m/s, 183° | 576 W/m² | - |
| 1777714523 | 21.11° C | 37% | 1020.9 hPa | 0 mm | 1.34 m/s, 228° | 576 W/m² | - |
| 1777714463 | 20.56° C | 38% | 1020.8 hPa | 0 mm | 1.79 m/s, 159° | 574 W/m² | - |
| 1777714402 | 20.56° C | 39% | 1020.8 hPa | 0 mm | 1.34 m/s, 165° | 572 W/m² | - |
| 1777714341 | 20.56° C | 39% | 1021 hPa | 0 mm | 1.34 m/s, 175° | 571 W/m² | - |
| 1777714280 | 20.56° C | 40% | 1020.8 hPa | 0 mm | 0.89 m/s, 175° | 571 W/m² | - |
| 1777714219 | 20.56° C | 39% | 1020.7 hPa | 0 mm | 1.79 m/s, 105° | 569 W/m² | - |
| 1777714157 | 20.56° C | 38% | 1020.9 hPa | 0 mm | 1.34 m/s, 150° | 568 W/m² | - |
| 1777714096 | 20.56° C | 37% | 1020.9 hPa | 0 mm | 0.89 m/s, 130° | 566 W/m² | - |
| 1777714036 | 20.56° C | 37% | 1020.8 hPa | 0 mm | 2.68 m/s, 179° | 565 W/m² | - |
| 1777713974 | 20.56° C | 38% | 1020.9 hPa | 0 mm | 1.79 m/s, 182° | 563 W/m² | - |
* Rain latest hour (hover to see other rain measurements)
** Current wind speed in m/s (hover to see current wind gust speed)